TimeAKST,TemperatureF,Dew PointF,Humidity,Sea Level PressureIn,VisibilityMPH,Wind Direction,Wind SpeedMPH,Gust SpeedMPH,PrecipitationIn,Events,Conditions,WindDirDegrees,DateUTC
12:16 AM,-13.0,-23.8,59,29.92,1.0,ENE,19.6,27.6,N/A,,Overcast,60,2012-11-18 09:16:00
12:36 AM,-13.0,-23.8,59,29.92,1.0,ENE,18.4,26.5,N/A,,Overcast,70,2012-11-18 09:36:00
12:56 AM,-14.8,-23.8,64,29.91,1.2,ENE,19.6,26.5,N/A,,Overcast,60,2012-11-18 09:56:00
1:16 AM,-14.8,-23.8,64,29.91,1.2,ENE,17.3,24.2,N/A,,Overcast,60,2012-11-18 10:16:00
1:36 AM,-13.0,-22.0,64,29.92,1.2,ENE,20.7,26.5,N/A,,Overcast,60,2012-11-18 10:36:00
1:56 AM,-13.0,-22.0,64,29.92,1.0,ENE,20.7,26.5,N/A,,Overcast,60,2012-11-18 10:56:00
2:16 AM,-9999,-9999,N/A,29.92,0.8,NE,23.0,27.6,N/A,,Overcast,50,2012-11-18 11:16:00
2:36 AM,-11.2,-20.2,64,29.93,0.8,ENE,15.0,26.5,N/A,,Overcast,60,2012-11-18 11:36:00
2:56 AM,-11.2,-23.8,54,29.92,1.0,ENE,19.6,23.0,N/A,,Overcast,70,2012-11-18 11:56:00
3:16 AM,-11.2,-20.2,64,29.93,1.5,ENE,19.6,28.8,N/A,,Overcast,60,2012-11-18 12:16:00
3:36 AM,-11.2,-20.2,64,29.92,1.5,ENE,21.9,28.8,N/A,,Overcast,70,2012-11-18 12:36:00
3:56 AM,-11.2,-20.2,64,29.93,3.0,ENE,20.7,28.8,N/A,,Partly Cloudy,70,2012-11-18 12:56:00
4:16 AM,-11.2,-20.2,64,29.93,4.0,East,19.6,27.6,N/A,,Mostly Cloudy,80,2012-11-18 13:16:00
4:36 AM,-11.2,-20.2,64,29.93,9.0,ENE,19.6,26.5,N/A,,Overcast,70,2012-11-18 13:36:00
4:56 AM,-11.2,-20.2,64,29.93,8.0,East,17.3,25.3,N/A,,Overcast,80,2012-11-18 13:56:00
5:16 AM,-11.2,-20.2,64,29.93,5.0,East,21.9,26.5,N/A,,Overcast,80,2012-11-18 14:16:00
5:36 AM,-11.2,-20.2,64,29.93,4.0,ENE,21.9,27.6,N/A,,Overcast,70,2012-11-18 14:36:00
5:56 AM,-11.2,-22.0,59,29.94,4.0,ENE,23.0,29.9,N/A,,Overcast,70,2012-11-18 14:56:00
6:16 AM,-11.2,-20.2,64,29.94,3.0,East,23.0,29.9,N/A,,Overcast,80,2012-11-18 15:16:00
6:36 AM,-11.2,-20.2,64,29.95,5.0,ENE,23.0,28.8,N/A,,Overcast,70,2012-11-18 15:36:00
6:56 AM,-11.2,-20.2,64,29.95,5.0,East,21.9,28.8,N/A,,Overcast,80,2012-11-18 15:56:00
7:16 AM,-11.2,-22.0,59,29.95,7.0,East,23.0,29.9,N/A,,Overcast,80,2012-11-18 16:16:00
7:36 AM,-11.2,-22.0,59,29.95,6.0,East,23.0,31.1,N/A,,Overcast,80,2012-11-18 16:36:00
7:56 AM,-11.2,-20.2,64,29.95,6.0,East,24.2,32.2,N/A,,Overcast,80,2012-11-18 16:56:00
8:16 AM,-11.2,-20.2,64,29.96,8.0,East,19.6,26.5,N/A,,Overcast,80,2012-11-18 17:16:00
8:36 AM,-11.2,-20.2,64,29.96,10.0,ENE,17.3,21.9,N/A,,Mostly Cloudy,70,2012-11-18 17:36:00
8:56 AM,-9.4,-20.2,59,29.96,7.0,ENE,18.4,24.2,N/A,,Overcast,70,2012-11-18 17:56:00
9:16 AM,-9.4,-20.2,59,29.96,3.0,ENE,20.7,26.5,N/A,,Overcast,70,2012-11-18 18:16:00
9:36 AM,-9.4,-20.2,59,29.96,3.0,ENE,24.2,31.1,N/A,,Overcast,70,2012-11-18 18:36:00
9:56 AM,-11.2,-20.2,64,29.97,4.0,East,23.0,29.9,N/A,,Overcast,80,2012-11-18 18:56:00
10:16 AM,-11.2,-20.2,64,29.98,2.0,ENE,19.6,27.6,N/A,,Overcast,70,2012-11-18 19:16:00
10:36 AM,-11.2,-20.2,64,29.98,1.0,ENE,24.2,29.9,N/A,,Overcast,70,2012-11-18 19:36:00
10:56 AM,-11.2,-20.2,64,29.99,1.0,ENE,20.7,27.6,N/A,,Overcast,70,2012-11-18 19:56:00
11:16 AM,-11.2,-20.2,64,30.00,1.0,ENE,17.3,25.3,N/A,,Overcast,70,2012-11-18 20:16:00
11:36 AM,-11.2,-20.2,64,29.99,1.0,ENE,19.6,26.5,N/A,,Overcast,70,2012-11-18 20:36:00
11:56 AM,-11.2,-20.2,64,30.00,1.5,East,20.7,27.6,N/A,,Overcast,80,2012-11-18 20:56:00
12:16 PM,-9.4,-20.2,59,30.01,2.0,East,21.9,27.6,N/A,,Overcast,80,2012-11-18 21:16:00
12:36 PM,-9.4,-20.2,59,30.02,4.0,ENE,19.6,24.2,N/A,,Overcast,70,2012-11-18 21:36:00
12:56 PM,-9.4,-20.2,59,30.02,5.0,ENE,17.3,-,N/A,,Overcast,70,2012-11-18 21:56:00
1:16 PM,-9.4,-20.2,59,30.02,3.0,ENE,19.6,25.3,N/A,,Overcast,70,2012-11-18 22:16:00
1:36 PM,-9.4,-20.2,59,30.03,5.0,ENE,17.3,24.2,N/A,,Overcast,70,2012-11-18 22:36:00
1:56 PM,-9.4,-20.2,59,30.03,6.0,ENE,18.4,24.2,N/A,,Overcast,70,2012-11-18 22:56:00
2:16 PM,-11.2,-20.2,64,30.03,5.0,ENE,16.1,21.9,N/A,,Overcast,70,2012-11-18 23:16:00
2:36 PM,-11.2,-20.2,64,30.03,6.0,ENE,15.0,-,N/A,,Overcast,60,2012-11-18 23:36:00
2:56 PM,-11.2,-20.2,64,30.04,10.0,ENE,15.0,-,N/A,,Overcast,60,2012-11-18 23:56:00
3:16 PM,-11.2,-22.0,59,30.04,10.0,ENE,16.1,20.7,N/A,,Overcast,70,2012-11-19 00:16:00
3:36 PM,-11.2,-22.0,59,30.04,10.0,ENE,13.8,-,N/A,,Overcast,70,2012-11-19 00:36:00
3:56 PM,-11.2,-22.0,59,30.04,10.0,ENE,16.1,20.7,N/A,,Overcast,60,2012-11-19 00:56:00
4:16 PM,-11.2,-22.0,59,30.05,10.0,East,13.8,-,N/A,,Overcast,80,2012-11-19 01:16:00
4:36 PM,-11.2,-22.0,59,30.05,10.0,ENE,11.5,-,N/A,,Overcast,70,2012-11-19 01:36:00
4:56 PM,-11.2,-22.0,59,30.06,10.0,ENE,11.5,-,N/A,,Overcast,70,2012-11-19 01:56:00
5:16 PM,-11.2,-22.0,59,30.06,10.0,ENE,12.7,-,N/A,,Overcast,70,2012-11-19 02:16:00
5:36 PM,-11.2,-22.0,59,30.07,10.0,ENE,12.7,17.3,N/A,,Overcast,70,2012-11-19 02:36:00
5:56 PM,-11.2,-22.0,59,30.07,10.0,ENE,12.7,-,N/A,,Overcast,70,2012-11-19 02:56:00
6:16 PM,-11.2,-22.0,59,30.08,10.0,ENE,9.2,-,N/A,,Overcast,70,2012-11-19 03:16:00
6:36 PM,-14.8,-25.6,58,30.09,10.0,North,6.9,-,N/A,,Overcast,10,2012-11-19 03:36:00
6:56 PM,-14.8,-27.4,53,30.08,10.0,NNW,10.4,17.3,N/A,,Overcast,340,2012-11-19 03:56:00
7:16 PM,-14.8,-23.8,64,30.09,10.0,North,9.2,-,N/A,,Overcast,10,2012-11-19 04:16:00
7:36 PM,-14.8,-25.6,58,30.10,10.0,North,11.5,-,N/A,,Overcast,10,2012-11-19 04:36:00
7:56 PM,-13.0,-25.6,53,30.10,9.0,NE,8.1,-,N/A,,Overcast,50,2012-11-19 04:56:00
8:16 PM,-13.0,-23.8,59,30.11,5.0,North,5.8,-,N/A,,Overcast,10,2012-11-19 05:16:00
8:36 PM,-14.8,-25.6,58,30.11,5.0,NE,8.1,-,N/A,,Overcast,40,2012-11-19 05:36:00
8:56 PM,-13.0,-23.8,59,30.11,4.0,NNE,6.9,-,N/A,,Overcast,20,2012-11-19 05:56:00
9:16 PM,-13.0,-20.2,70,30.12,4.0,North,5.8,-,N/A,,Overcast,10,2012-11-19 06:16:00
9:36 PM,-14.8,-25.6,58,30.12,5.0,North,5.8,-,N/A,,Overcast,360,2012-11-19 06:36:00
9:56 PM,-14.8,-25.6,58,30.12,7.0,North,5.8,-,N/A,,Overcast,10,2012-11-19 06:56:00
10:16 PM,-13.0,-22.0,64,30.13,9.0,North,6.9,-,N/A,,Overcast,360,2012-11-19 07:16:00
10:36 PM,-14.8,-23.8,64,30.13,8.0,North,9.2,-,N/A,,Overcast,360,2012-11-19 07:36:00
10:56 PM,-14.8,-25.6,58,30.13,10.0,North,9.2,-,N/A,,Mostly Cloudy,10,2012-11-19 07:56:00
11:16 PM,-14.8,-25.6,58,30.13,10.0,North,6.9,-,N/A,,Mostly Cloudy,10,2012-11-19 08:16:00
11:36 PM,-14.8,-23.8,64,30.14,10.0,North,6.9,-,N/A,,Scattered Clouds,10,2012-11-19 08:36:00
11:56 PM,-14.8,-25.6,58,30.14,10.0,North,6.9,-,N/A,,Clear,10,2012-11-19 08:56:00